Weather History for Jerome, ID

Change the Weather History Date:

Saturday, March 30, 2013

  Actual Average Record
Temperature  
Mean Temperature 52 °F 44 °F  
Max Temperature 65 °F 54 °F 79 °F (1978)
Min Temperature 39 °F 33 °F 17 °F (1954)
Degree Days  
Heating Degree Days 13 21  
Month to date heating degree days 710 747  
Since 1 July heating degree days 5335 5634  
Cooling Degree Days 0 0  
Month to date cooling degree days 0 0  
Year to date cooling degree days 0 0  
Growing Degree Days 2 (Base 50)    
Moisture  
Dew Point 31 °F    
Average Humidity 48    
Maximum Humidity 70    
Minimum Humidity 26    
Precipitation  
Precipitation 0.00 in 0.04 in 0.33 in (1959)
Month to date precipitation 0.51 1.03  
Year to date precipitation 1.50 2.97  
Sea Level Pressure  
Sea Level Pressure 30.16 in    
Wind  
Wind Speed 5 mph (SW)    
Max Wind Speed 16 mph    
Max Gust Speed 21 mph    
Visibility 10 miles    
Events      
T = Trace of Precipitation, MM = Missing Value Source: NWS Daily Summary

Daily Weather History Graph

Daily Weather History Graph

Search for Another Location

Airport:

Trip Planner

Search our weather history database for the weather conditions in past years. The results will help you decide how hot, cold, wet, or windy it might be!

Date:

Astronomy

Mar. 30, 2013 Rise Set
Actual Time 7:22 AM MDT 8:02 PM MDT
Civil Twilight 6:54 AM MDT 8:30 PM MDT
Nautical Twilight 6:20 AM MDT 9:04 PM MDT
Astronomical Twilight 5:46 AM MDT 9:39 PM MDT
Moon No Moon Rise 9:16 AM MDT (3/30)
Length of Visible Light 13h 36m
Length of Day
12h 39m
Waning Gibbous, 86% of the Moon is Illuminated
Mar 30
Waning Gibbous
Apr 2
Last Quarter
Apr 10
New
Apr 18
First Quarter
Apr 25
Full

Hourly Weather History & Observations

Time (MDT) Temp. Windchill Dew Point Humidity Pressure Visibility Wind Dir Wind Speed Gust Speed Precip Events Conditions
12:53 AM 44.1 °F 41.5 °F 30.9 °F 60% 30.16 in 10.0 mi SE 4.6 mph - N/A   Clear
1:53 AM 44.1 °F 41.5 °F 30.9 °F 60% 30.17 in 10.0 mi SSE 4.6 mph - N/A   Clear
2:53 AM 45.0 °F 43.5 °F 30.9 °F 58% 30.16 in 10.0 mi South 3.5 mph - N/A   Clear
3:53 AM 45.0 °F - 30.9 °F 58% 30.16 in 10.0 mi Calm Calm - N/A   Clear
4:53 AM 44.1 °F 42.5 °F 32.0 °F 63% 30.17 in 10.0 mi South 3.5 mph - N/A   Clear
5:53 AM 39.9 °F 37.8 °F 30.9 °F 70% 30.18 in 10.0 mi SSE 3.5 mph - N/A   Clear
6:53 AM 41.0 °F 39.0 °F 30.9 °F 67% 30.18 in 10.0 mi South 3.5 mph - N/A   Clear
7:53 AM 39.9 °F 37.8 °F 30.9 °F 70% 30.22 in 10.0 mi South 3.5 mph - N/A   Clear
8:53 AM 45.0 °F 42.6 °F 34.0 °F 65% 30.23 in 10.0 mi SW 4.6 mph - N/A   Clear
9:53 AM 48.9 °F - 35.1 °F 59% 30.22 in 10.0 mi West 9.2 mph - N/A   Clear
10:53 AM 52.0 °F - 36.0 °F 54% 30.22 in 10.0 mi WSW 8.1 mph - N/A   Clear
11:53 AM 55.0 °F - 36.0 °F 49% 30.22 in 10.0 mi WSW 9.2 mph - N/A   Clear
12:53 PM 59.0 °F - 36.0 °F 42% 30.20 in 10.0 mi West 10.4 mph 17.3 mph N/A   Clear
1:53 PM 61.0 °F - 34.0 °F 36% 30.19 in 10.0 mi West 9.2 mph - N/A   Clear
2:53 PM 63.0 °F - 32.0 °F 31% 30.16 in 10.0 mi WNW 10.4 mph 16.1 mph N/A   Clear
3:53 PM 64.0 °F - 30.9 °F 29% 30.14 in 10.0 mi WNW 12.7 mph - N/A   Clear
4:53 PM 63.0 °F - 28.9 °F 28% 30.13 in 10.0 mi Variable 3.5 mph - N/A   Clear
5:53 PM 64.0 °F - 28.9 °F 27% 30.12 in 10.0 mi West 4.6 mph - N/A   Clear
6:53 PM 62.1 °F - 30.0 °F 30% 30.11 in 10.0 mi WSW 5.8 mph - N/A   Clear
7:53 PM 57.9 °F - 28.9 °F 33% 30.12 in 10.0 mi Calm Calm - N/A   Clear
8:53 PM 51.1 °F - 27.0 °F 39% 30.13 in 10.0 mi Calm Calm - N/A   Clear
9:53 PM 54.0 °F - 27.0 °F 35% 30.12 in 10.0 mi Calm Calm - N/A   Clear
10:53 PM 53.1 °F - 27.0 °F 37% 30.12 in 10.0 mi Calm Calm - N/A   Clear
11:53 PM 46.9 °F - 27.0 °F 46% 30.12 in 10.0 mi Calm Calm - N/A   Clear